Regional Weather Roundup
Issued by NWS

Home | Current Version | Previous Version | Graphics & Text | Print | Product List | Glossary On
Versions: 1 2 3 4 5 6 7 8 9 10 11 12 13 14 15 16 17 18 19 20 21 22 23 24 25 26 27 28 29 30 31 32 33 34 35 36 37 38 39 40 41 42 43 44 45 46 47 48 49 50
000
ASUS43 KLSX 300307
RWRMO

WEATHER SUMMARY FOR MISSOURI
NATIONAL WEATHER SERVICE SPRINGFIELD MO
1000 PM CDT MON SEP 29 2014

NOTE: "FAIR" INDICATES FEW OR NO CLOUDS BELOW 12,000 FEET WITH NO
       SIGNIFICANT WEATHER AND/OR OBSTRUCTIONS TO VISIBILITY.
       CURRENT SKY AND/OR WEATHER CONDITIONS ARE NOT AVAILABLE FOR
       CHILLICOTHE AND FARMINGTON.

MOZ001>031-035>038-043-044-053-054-300400-
...NORTHERN AND WESTERN MISSOURI...

CITY           SKY/WX    TMP DP  RH WIND       PRES   REMARKS
KANSAS CTY INT CLEAR     69  58  67 SE7       29.95F
KANSAS C DTWN  CLEAR     72  60  66 E3        29.94F
LEE`S SUMMIT   CLEAR     72  58  61 SE6       29.97S
ST JOSEPH      CLEAR     61  56  83 CALM      29.94F
CHILLICOTHE      N/A     63  60  90 CALM      29.97F
KIRKSVILLE     CLEAR     59  57  93 CALM      29.98S

$$
MOZ066>068-077>081-088>096-101>105-300400-
...SOUTHWEST MISSOURI...

CITY           SKY/WX    TMP DP  RH WIND       PRES   REMARKS
SPRINGFIELD    CLEAR     65  57  75 CALM      29.98S
JOPLIN         CLEAR     68  59  73 SE3       29.97S

$$
MOZ032>034-039>042-045>050-055>058-069>072-300400-
...CENTRAL MISSOURI...

CITY           SKY/WX    TMP DP  RH WIND       PRES   REMARKS
COLUMBIA       CLEAR     68  58  70 E6        29.98S
JEFFERSON CITY CLEAR     64  59  83 E3        29.96S
ROLLA          CLEAR     68  52  56 E5        29.97F
SEDALIA        CLEAR     67  57  70 S3        29.97S
WHITEMAN AFB   CLEAR     63  59  88 S3        29.95F
OSAGE BEACH    CLEAR     64  57  77 CALM      29.97S

$$
MOZ051-052-059>065-300400-
...EAST CENTRAL MISSOURI...

CITY           SKY/WX    TMP DP  RH WIND       PRES   REMARKS
ST LOUIS INTL  CLEAR     72  59  63 CALM      29.97S
SPIRIT OF STL  CLEAR     62  60  93 W3        29.96S
ST CHARLES     CLEAR     65  62  90 CALM      29.96R

$$
MOZ072>076-082>087-097>100-106>115-300400-
...SOUTH CENTRAL AND SOUTHEAST MISSOURI...

CITY           SKY/WX    TMP DP  RH WIND       PRES   REMARKS
CAPE GIRARDEAU CLEAR     60  57  89 CALM      29.96S
FARMINGTON     CLEAR     63  55  77 CALM      30.01S
POPLAR BLUFF   CLEAR     63  58  83 CALM      29.95S
WEST PLAINS    PTCLDY    65  60  84 CALM      30.00S

$$



USA.gov is the U.S. government's official web portal to all federal, state and local government web resources and services.